Terug naar catalogus

STARLINK-3518

ActiefCommunicatieVLEO
NORAD 51732·PAYLOAD·🇺🇸 United States

Gelanceerd Feb 21, 2022 vanaf Cape Canaveral Space Force Station

Loading…

Volgende Passages (komende 24 uur)

TLE

VersSource: CelesTrak SupGP

Epoch: Sep 15, 2026, 01:40 UTC

1 51732C 22016U   26258.06993056 -.00003165  00000+0 -93584-4 0  2587
2 51732  53.1587 174.9377 0001411  87.4569  89.5816 15.34368734    15

Volg STARLINK-3518 in realtime met AllMySat

Download on the App Store